Location: *
(50.3440°N, 18.6237°E)
Time: 13:11:32
(UTC+00:00)

Cosmos 1943 Rocket - Pass Details

Date: 30 November 2020
Orbit: 811 x 845 km, 71.0° (Epoch: 27 January)

Event Time Altitude Azimuth Distance (km) Brightness Sun altitude
Rises 16:28:02 0° 329° (NNW) 3,357 5.5 -15.6°
Reaches altitude 10° 16:30:28 10° 327° (NNW) 2,425 4.8 -16.0°
Maximum altitude 16:35:58 68° 245° (WSW) 891 2.5 -16.8°
Drops below altitude 10° 16:41:30 10° 164° (SSE) 2,432 4.6 -17.7°
Sets 16:43:56 0° 162° (SSE) 3,366 5.3 -18.1°
